EW7144 Weather Reports


time (UTC)temp
C
wind
direction
speed
KPH
gust
KPH
rain 1hr
cm
rain 24hr
cm
rain mn
cm
humidity
%
barometer
mb
20260904160406 11 198 8.0 29.0 0.00 0.00 0.00 76 1013.2
20260904155906 11 219 11.3 25.7 0.00 0.00 0.00 76 1013.1
20260904155406 11 224 9.7 27.4 0.00 0.00 0.00 76 1013.0
20260904154906 11 200 9.7 29.0 0.00 0.00 0.00 77 1013.0
20260904154406 11 204 14.5 32.2 0.00 0.00 0.00 77 1013.0
20260904153906 11 236 4.8 19.3 0.00 0.00 0.00 77 1013.1
20260904153406 11 209 8.0 25.7 0.00 0.00 0.00 77 1013.1
20260904152905 11 230 6.4 20.9 0.00 0.00 0.00 77 1013.0
20260904152406 11 239 9.7 27.4 0.00 0.00 0.00 77 1012.9
20260904151906 11 202 12.9 25.7 0.00 0.00 0.00 77 1012.8
20260904151406 11 206 11.3 24.1 0.00 0.00 0.00 77 1012.8
20260904150906 11 193 12.9 27.4 0.00 0.00 0.00 77 1012.8
20260904150406 11 211 14.5 29.0 0.00 0.00 0.00 77 1012.8
20260904145906 11 217 11.3 32.2 0.00 0.00 0.00 77 1012.8
20260904145406 11 220 11.3 29.0 0.00 0.00 0.00 77 1012.8
20260904144905 11 196 9.7 22.5 0.00 0.00 0.00 76 1012.9
20260904144406 11 198 12.9 33.8 0.00 0.00 0.00 76 1012.9
20260904143906 11 203 11.3 27.4 0.00 0.00 0.00 76 1012.9
20260904143406 11 195 12.9 32.2 0.00 0.00 0.00 76 1012.9
20260904142906 11 218 9.7 22.5 0.00 0.00 0.00 76 1013.0
20260904142406 11 203 11.3 27.4 0.00 0.00 0.00 76 1013.0
20260904141906 12 199 11.3 29.0 0.00 0.00 0.00 76 1012.9
20260904140906 11 211 14.5 33.8 0.00 0.00 0.00 76 1012.8
20260904140406 11 211 11.3 29.0 0.00 0.00 0.00 76 1012.8
20260904135406 11 229 9.7 37.0 0.00 0.00 0.00 76 1012.7
20260904134906 12 206 11.3 33.8 0.00 0.00 0.00 76 1012.8
20260904134406 11 215 14.5 41.8 0.00 0.00 0.00 76 1012.7
20260904133907 11 208 9.7 24.1 0.00 0.00 0.00 75 1012.6
20260904132906 11 216 16.1 35.4 0.00 0.00 0.00 76 1012.3
20260904132407 11 203 14.5 32.2 0.00 0.00 0.00 77 1012.3
20260904131906 11 194 9.7 33.8 0.00 0.00 0.00 77 1012.3
20260904131406 11 215 9.7 41.8 0.00 0.00 0.00 77 1012.3
20260904130906 11 202 16.1 32.2 0.00 0.00 0.00 77 1012.2
20260904130406 11 231 11.3 29.0 0.00 0.00 0.00 76 1012.2
20260904125906 11 202 8.0 32.2 0.00 0.00 0.00 76 1011.9
20260904124906 11 191 12.9 29.0 0.00 0.00 0.00 76 1011.8
20260904124405 11 192 14.5 32.2 0.00 0.00 0.00 77 1011.7
20260904123906 11 216 16.1 40.2 0.00 0.00 0.00 77 1011.6
20260904123406 11 189 11.3 32.2 0.00 0.00 0.00 78 1011.5
20260904121906 11 203 14.5 25.7 0.00 0.00 0.00 79 1011.3
20260904121407 11 288 8.0 27.4 0.00 0.00 0.00 78 1011.3
20260904120906 11 234 11.3 29.0 0.00 0.00 0.00 78 1011.4
20260904115906 11 196 11.3 33.8 0.00 0.00 0.00 78 1011.3
20260904114906 11 240 9.7 32.2 0.00 0.00 0.00 77 1011.1
20260904114408 11 201 16.1 45.1 0.00 0.00 0.00 76 1011.1
20260904113906 11 202 14.5 45.1 0.00 0.00 0.00 76 1011.1
20260904113406 12 217 12.9 33.8 0.00 0.00 0.00 76 1011.1
20260904112907 11 222 12.9 25.7 0.00 0.00 0.00 76 1011.0
20260904112406 11 228 16.1 33.8 0.00 0.00 0.00 76 1010.9
20260904111906 11 199 12.9 33.8 0.00 0.00 0.00 76 1010.8
20260904110906 11 226 11.3 32.2 0.00 0.00 0.00 75 1010.9
20260904110406 11 220 11.3 29.0 0.00 0.00 0.00 75 1011.0
20260904105907 11 216 12.9 32.2 0.00 0.00 0.00 74 1010.9
20260904105407 11 206 11.3 32.2 0.00 0.00 0.00 74 1011.0
20260904104907 11 300 14.5 41.8 0.00 0.00 0.00 74 1010.8
20260904103906 11 216 8.0 20.9 0.00 0.00 0.00 75 1010.7
20260904103406 11 209 11.3 38.6 0.00 0.00 0.00 74 1010.5
20260904102906 11 218 16.1 35.4 0.00 0.00 0.00 75 1010.4
20260904102410 11 259 16.1 38.6 0.00 0.00 0.00 75 1010.2
20260904101906 11 256 14.5 32.2 0.00 0.00 0.00 76 1010.2
20260904100906 11 223 16.1 35.4 0.00 0.00 0.00 75 1010.3
20260904100407 11 225 16.1 45.1 0.00 0.00 0.00 75 1010.3
20260904095907 11 226 11.3 32.2 0.00 0.00 0.00 75 1010.2
20260904094906 11 194 9.7 22.5 0.00 0.00 0.00 74 1010.0
20260904094406 11 222 16.1 33.8 0.00 0.00 0.00 74 1010.0
20260904093906 11 215 14.5 32.2 0.00 0.00 0.00 75 1009.9
20260904093406 11 233 12.9 29.0 0.00 0.00 0.00 74 1009.9
20260904091906 11 264 12.9 33.8 0.00 0.00 0.00 76 1009.7
20260904091406 11 214 17.7 33.8 0.00 0.00 0.00 76 1009.4
20260904090906 11 237 14.5 32.2 0.00 0.00 0.00 76 1009.6
20260904090406 11 244 19.3 37.0 0.00 0.00 0.00 75 1009.6
20260904085906 11 229 11.3 35.4 0.00 0.00 0.00 76 1009.5
20260904085406 11 226 14.5 40.2 0.00 0.00 0.00 75 1009.5
20260904084906 11 228 19.3 40.2 0.00 0.00 0.00 75 1009.3
20260904084406 11 204 11.3 38.6 0.00 0.00 0.00 76 1009.2
20260904083906 11 224 20.9 40.2 0.00 0.00 0.00 75 1009.2
20260904083406 11 206 17.7 37.0 0.00 0.00 0.00 76 1009.1
20260904082907 11 223 16.1 37.0 0.00 0.00 0.00 77 1008.9
20260904081906 11 239 14.5 45.1 0.00 0.00 0.00 79 1008.7
20260904081406 11 200 19.3 37.0 0.00 0.00 0.00 80 1008.5
20260904080906 11 245 14.5 41.8 0.00 0.00 0.00 80 1008.3
20260904080406 11 210 22.5 45.1 0.00 0.00 0.00 81 1007.9
20260904075906 11 214 22.5 48.3 0.00 0.00 0.00 81 1007.8
20260904075406 11 317 19.3 45.1 0.00 0.00 0.00 81 1007.7
20260904074906 11 219 16.1 41.8 0.00 0.00 0.00 82 1007.8
20260904074410 11 201 12.9 38.6 0.00 0.00 0.00 82 1007.7
20260904073406 10 214 14.5 40.2 0.00 0.00 0.00 81 1007.9
20260904072906 10 202 17.7 38.6 0.00 0.00 0.00 81 1007.8
20260904072406 10 206 17.7 41.8 0.00 0.00 0.00 81 1007.6
20260904071906 10 234 17.7 37.0 0.00 0.00 0.00 81 1007.6
20260904065406 10 214 29.0 51.5 0.00 0.00 0.00 84 1007.5
20260904064906 9 211 27.4 57.9 0.00 0.00 0.00 85 1007.3
20260904064406 9 217 24.1 51.5 0.00 0.00 0.00 86 1007.3
20260904063906 9 221 25.7 56.3 0.00 0.00 0.00 86 1007.3
20260904063406 9 248 24.1 41.8 0.00 0.00 0.00 87 1007.1
20260904062906 9 212 20.9 49.9 0.00 0.00 0.00 87 1007.2
20260904062406 9 222 20.9 45.1 0.00 0.00 0.00 86 1007.3
20260904061907 10 225 22.5 51.5 0.00 0.00 0.00 86 1007.6
20260904061406 10 201 19.3 46.7 0.00 0.00 0.00 85 1007.7
20260904060406 11 232 22.5 46.7 0.00 0.00 0.00 82 1007.9
20260904055906 12 283 22.5 40.2 0.00 0.00 0.00 81 1007.6
20260904055405 12 320 24.1 45.1 0.00 0.00 0.00 80 1007.3
20260904054906 12 321 16.1 35.4 0.00 0.00 0.00 81 1007.1
20260904054405 12 319 16.1 41.8 0.00 0.00 0.00 80 1006.9
20260904053406 12 300 17.7 37.0 0.00 0.00 0.00 80 1007.0
20260904052905 12 307 20.9 53.1 0.00 0.00 0.00 80 1007.0
20260904052406 12 236 19.3 41.8 0.00 0.00 0.00 80 1007.1
20260904051906 12 244 19.3 40.2 0.00 0.00 0.00 80 1007.0
20260904050906 12 233 14.5 33.8 0.00 0.00 0.00 81 1007.2
20260904050405 12 250 19.3 37.0 0.00 0.00 0.00 82 1007.1
20260904045906 12 235 19.3 45.1 0.00 0.00 0.00 83 1007.1
20260904045405 11 308 14.5 32.2 0.00 0.00 0.00 84 1007.1
20260904044906 10 301 14.5 32.2 0.00 0.00 0.00 85 1007.3
20260904044405 10 264 19.3 35.4 0.00 0.00 0.00 84 1007.3
20260904043905 10 252 17.7 41.8 0.00 0.00 0.00 84 1007.4
20260904043405 10 205 22.5 41.8 0.00 0.00 0.00 84 1007.5
20260904042406 12 235 25.7 59.5 0.00 0.00 0.00 83 1007.1
20260904041906 12 225 17.7 38.6 0.00 0.00 0.00 84 1006.6
20260904041406 12 264 17.7 35.4 0.00 0.00 0.00 84 1006.6
20260904040905 12 221 16.1 38.6 0.00 0.00 0.00 84 1006.7
20260904040406 12 272 19.3 35.4 0.00 0.00 0.00 81 1006.7
20260904035905 13 271 16.1 40.2 0.00 0.00 0.00 78 1007.2
20260904035405 14 317 20.9 46.7 0.00 0.00 0.00 75 1006.6
20260904034905 15 326 22.5 46.7 0.00 0.00 0.00 74 1006.6
20260904034405 15 341 16.1 41.8 0.00 0.00 0.00 73 1006.4
20260904033905 15 272 19.3 38.6 0.00 0.00 0.00 73 1006.2
20260904033406 15 295 19.3 41.8 0.00 0.00 0.00 74 1006.2
20260904032906 15 320 12.9 35.4 0.00 0.00 0.00 76 1005.9
20260904031906 13 293 14.5 32.2 0.00 0.00 0.00 76 1006.0
20260904031406 13 283 16.1 37.0 0.00 0.00 0.00 74 1006.1
20260904030905 14 322 20.9 37.0 0.00 0.00 0.00 73 1006.2
20260904030406 15 252 17.7 41.8 0.00 0.00 0.00 71 1006.0
20260904025406 15 302 16.1 38.6 0.00 0.00 0.00 71 1006.2
20260904024905 15 315 17.7 38.6 0.00 0.00 0.00 70 1005.9
20260904024406 15 300 19.3 38.6 0.00 0.00 0.00 70 1006.0
20260904023406 15 224 16.1 35.4 0.00 0.00 0.00 71 1005.8
20260904022905 15 296 17.7 41.8 0.00 0.00 0.00 71 1005.8
20260904022406 15 238 19.3 45.1 0.00 0.00 0.00 70 1005.8
20260904021905 15 225 20.9 48.3 0.00 0.00 0.00 70 1005.6
20260904021406 15 221 20.9 41.8 0.00 0.00 0.00 70 1005.6
20260904020906 15 259 16.1 46.7 0.00 0.00 0.00 71 1005.6
20260904020406 15 214 19.3 41.8 0.00 0.00 0.00 71 1005.6
20260904015905 15 332 14.5 35.4 0.00 0.00 0.00 70 1005.6
20260904015405 15 333 17.7 37.0 0.00 0.00 0.00 72 1005.7
20260904014906 15 317 16.1 41.8 0.00 0.00 0.00 73 1005.7
20260904014406 15 340 11.3 35.4 0.00 0.00 0.00 74 1005.8
20260904013905 15 327 16.1 32.2 0.00 0.00 0.00 73 1005.8
20260904013406 15 330 19.3 35.4 0.00 0.00 0.00 73 1005.9
20260904012906 15 331 16.1 32.2 0.00 0.00 0.00 72 1006.0
20260904011905 15 216 17.7 35.4 0.00 0.00 0.00 70 1006.1
20260904011406 15 324 19.3 41.8 0.00 0.00 0.00 70 1006.1
20260904010906 15 238 16.1 35.4 0.00 0.00 0.00 70 1006.1
20260904010405 15 336 14.5 32.2 0.00 0.00 0.00 69 1006.2
20260904005906 15 326 12.9 32.2 0.00 0.00 0.00 71 1006.3
20260904005406 15 285 12.9 32.2 0.00 0.00 0.00 71 1006.3
20260904004905 15 280 16.1 33.8 0.00 0.00 0.00 72 1006.4
20260904004406 15 311 16.1 38.6 0.00 0.00 0.00 73 1006.4
20260904003906 15 293 14.5 45.1 0.00 0.00 0.00 74 1006.2
20260904003406 15 298 19.3 35.4 0.00 0.00 0.00 73 1006.2
20260904002906 15 341 14.5 38.6 0.00 0.00 0.00 73 1006.2
20260904002405 15 291 14.5 38.6 0.00 0.00 0.00 74 1006.2
20260904001908 15 258 19.3 38.6 0.00 0.00 0.00 71 1006.1
20260904000906 15 332 19.3 41.8 0.00 0.00 0.00 72 1006.1
20260904000406 15 282 16.1 41.8 0.00 0.00 0.00 73 1005.9
20260903235907 15 320 11.3 46.7 0.00 0.00 0.00 75 1006.0
20260903235406 15 320 14.5 32.2 0.00 0.00 0.00 75 1005.9
20260903234906 15 294 16.1 37.0 0.00 0.00 0.00 74 1005.7
20260903234406 15 293 19.3 48.3 0.00 0.00 0.00 74 1005.5
20260903233906 15 313 16.1 33.8 0.00 0.00 0.00 75 1005.5
20260903233406 15 336 19.3 41.8 0.00 0.00 0.00 74 1005.3
20260903232906 15 318 17.7 46.7 0.00 0.00 0.00 75 1005.3
20260903231906 15 323 16.1 32.2 0.00 0.00 0.00 75 1005.3
20260903230905 15 236 14.5 29.0 0.00 0.00 0.00 74 1005.3
20260903225906 14 281 16.1 41.8 0.00 0.00 0.00 77 1005.2
20260903225406 14 325 20.9 41.8 0.00 0.00 0.00 75 1005.2
20260903224406 14 327 14.5 41.8 0.00 0.00 0.00 78 1004.8
20260903223906 14 249 17.7 38.6 0.00 0.00 0.00 79 1004.8
20260903223406 14 301 14.5 41.8 0.00 0.00 0.00 80 1004.9
20260903222906 13 222 16.1 51.5 0.00 0.00 0.00 80 1004.9
20260903222406 13 205 17.7 37.0 0.00 0.00 0.00 80 1004.9
20260903221906 13 230 19.3 45.1 0.00 0.00 0.00 84 1004.9
20260903221405 13 257 14.5 40.2 0.00 0.00 0.00 86 1004.8
20260903220905 13 232 19.3 38.6 0.00 0.00 0.00 86 1004.8
20260903220406 12 222 14.5 35.4 0.00 0.00 0.00 87 1004.8
20260903215906 12 339 14.5 40.2 0.00 0.00 0.00 87 1004.8
20260903215405 13 299 22.5 48.3 0.00 0.00 0.00 86 1004.7
20260903214906 14 350 25.7 46.7 0.00 0.00 0.00 86 1004.7
20260903213906 15 337 14.5 37.0 0.00 0.00 0.00 88 1004.3
20260903213405 15 328 16.1 38.6 0.00 0.00 0.00 88 1004.3
20260903212906 14 314 20.9 45.1 0.00 0.00 0.00 89 1004.3
20260903212406 14 315 19.3 45.1 0.00 0.00 0.00 89 1004.3
20260903211405 14 342 14.5 38.6 0.00 0.00 0.00 90 1004.2
20260903210906 14 302 16.1 37.0 0.00 0.00 0.00 90 1004.1
20260903205906 13 315 17.7 38.6 0.00 0.00 0.00 91 1004.3
20260903205406 13 318 16.1 37.0 0.00 0.00 0.00 90 1004.2
20260903204906 13 309 11.3 32.2 0.00 0.00 0.00 91 1004.3
20260903204406 13 289 19.3 35.4 0.00 0.00 0.00 91 1004.2
20260903203406 13 319 20.9 38.6 0.00 0.00 0.00 91 1004.2
20260903202906 13 327 19.3 46.7 0.00 0.00 0.00 91 1004.2
20260903202405 13 327 17.7 35.4 0.00 0.00 0.00 91 1004.2
20260903201905 14 334 22.5 40.2 0.00 0.00 0.00 91 1004.1
20260903201406 13 328 29.0 56.3 0.00 0.00 0.00 91 1004.0
20260903200906 13 333 30.6 64.4 0.00 0.00 0.00 91 1003.9
20260903200406 14 351 29.0 56.3 0.00 0.00 0.00 91 1004.0
20260903195905 14 339 22.5 40.2 0.00 0.00 0.00 91 1003.9
20260903194905 14 341 27.4 48.3 0.00 0.00 0.00 91 1003.9
20260903194405 14 322 29.0 49.9 0.00 0.00 0.00 91 1004.0
20260903193906 14 348 32.2 51.5 0.00 0.00 0.00 91 1004.1
20260903193406 14 331 33.8 59.5 0.00 0.00 0.00 91 1003.9
20260903192906 14 349 33.8 64.4 0.00 0.00 0.00 91 1003.7
20260903192405 14 341 29.0 51.5 0.00 0.00 0.00 91 1003.6
20260903191906 14 338 33.8 61.2 0.00 0.00 0.00 91 1003.6
20260903191406 14 351 35.4 51.5 0.00 0.00 0.00 91 1003.6
20260903190905 14 345 29.0 53.1 0.00 0.00 0.00 91 1003.5
20260903185905 14 351 27.4 46.7 0.00 0.00 0.00 91 1003.6
20260903185406 14 343 20.9 41.8 0.00 0.00 0.00 91 1003.9
20260903184906 14 347 24.1 38.6 0.00 0.00 0.00 91 1004.1
20260903184406 14 346 22.5 46.7 0.00 0.00 0.00 91 1004.4
20260903183406 14 342 25.7 51.5 0.00 0.00 0.00 91 1004.7
20260903182906 14 342 27.4 45.1 0.00 0.00 0.00 91 1004.7
20260903182405 14 346 24.1 40.2 0.00 0.00 0.00 91 1004.9
20260903181905 14 353 19.3 37.0 0.00 0.00 0.00 91 1005.1
20260903181406 14 333 25.7 46.7 0.00 0.00 0.00 91 1005.4
20260903180905 14 340 22.5 41.8 0.00 0.00 0.00 91 1005.4
20260903180405 14 348 16.1 46.7 0.00 0.00 0.00 91 1005.5
20260903175906 14 346 22.5 45.1 0.00 0.00 0.00 91 1005.7
20260903174406 14 347 27.4 56.3 0.00 0.00 0.00 91 1005.8
20260903173405 14 358 20.9 45.1 0.00 0.00 0.00 91 1005.7
20260903172906 14 349 24.1 48.3 0.00 0.00 0.00 91 1005.6
20260903172405 14 329 29.0 49.9 0.00 0.00 0.00 91 1005.6
20260903171906 14 333 29.0 51.5 0.00 0.00 0.00 91 1005.7
20260903171405 14 336 33.8 59.5 0.00 0.00 0.00 91 1005.7
20260903170906 14 356 27.4 41.8 0.00 0.00 0.00 91 1005.9
20260903170406 14 338 22.5 51.5 0.00 0.00 0.00 91 1006.1
20260903165905 14 348 29.0 46.7 0.00 0.00 0.00 91 1006.3
20260903165406 14 334 27.4 53.1 0.00 0.00 0.00 91 1006.2
20260903164905 14 345 25.7 49.9 0.00 0.00 0.00 91 1006.2
20260903164405 14 339 27.4 49.9 0.00 0.00 0.00 91 1006.2
20260903163906 14 353 25.7 51.5 0.00 0.00 0.00 91 1006.1
20260903163406 14 334 24.1 46.7 0.00 0.00 0.00 91 1006.1
20260903162906 14 356 29.0 53.1 0.00 0.00 0.00 91 1006.1
20260903162406 14 342 29.0 53.1 0.00 0.00 0.00 91 1006.1
20260903160905 14 340 27.4 51.5 0.00 0.00 0.00 91 1006.3